Track FLOCK 3P 60 now! 10-day predictions FLOCK 3P 60 is classified as:
1 41976U 17008AE 22135.69946989 .00039593 00000-0 11086-2 0 9993 2 41976 97.2799 203.3607 0004345 348.3700 11.7443 15.36516808291278